TimeCST,TemperatureF,Dew PointF,Humidity,Sea Level PressureIn,VisibilityMPH,Wind Direction,Wind SpeedMPH,Gust SpeedMPH,PrecipitationIn,Events,Conditions,WindDirDegrees,DateUTC
12:53 AM,72.0,52.0,49,29.81,10.0,NNE,8.1,-,N/A,,Overcast,20,2013-02-22 06:53:00
1:53 AM,71.1,52.0,51,29.79,10.0,NNE,4.6,-,N/A,,Clear,20,2013-02-22 07:53:00
2:53 AM,70.0,52.0,53,29.77,10.0,NNE,8.1,-,N/A,,Clear,20,2013-02-22 08:53:00
3:48 AM,69.8,51.8,53,29.78,10.0,NNW,3.5,-,N/A,,Mostly Cloudy,340,2013-02-22 09:48:00
3:53 AM,68.0,51.1,55,29.78,10.0,NNW,3.5,-,N/A,,Mostly Cloudy,330,2013-02-22 09:53:00
4:53 AM,68.0,50.0,52,29.77,10.0,North,8.1,-,N/A,,Overcast,360,2013-02-22 10:53:00
5:53 AM,68.0,52.0,56,29.79,10.0,NNE,6.9,-,N/A,,Overcast,20,2013-02-22 11:53:00
6:53 AM,68.0,52.0,56,29.81,10.0,North,5.8,-,N/A,,Overcast,10,2013-02-22 12:53:00
7:53 AM,68.0,53.1,59,29.84,10.0,NNW,6.9,-,N/A,,Overcast,340,2013-02-22 13:53:00
8:53 AM,68.0,54.0,61,29.88,10.0,NNW,5.8,-,N/A,,Overcast,330,2013-02-22 14:53:00
9:53 AM,68.0,55.0,63,29.89,10.0,NW,11.5,-,N/A,,Overcast,320,2013-02-22 15:53:00
10:53 AM,70.0,55.9,61,29.89,10.0,North,10.4,-,N/A,,Overcast,350,2013-02-22 16:53:00
11:53 AM,73.0,59.0,61,29.88,10.0,North,6.9,-,N/A,,Overcast,350,2013-02-22 17:53:00
12:53 PM,75.9,60.1,58,29.85,10.0,North,5.8,-,N/A,,Overcast,360,2013-02-22 18:53:00
1:25 PM,78.8,60.8,54,29.83,10.0,NNE,8.1,-,N/A,,Scattered Clouds,20,2013-02-22 19:25:00
1:53 PM,80.1,60.1,50,29.81,10.0,NNE,8.1,-,N/A,,Clear,30,2013-02-22 19:53:00
2:53 PM,79.0,60.1,52,29.79,10.0,ENE,12.7,19.6,N/A,,Mostly Cloudy,60,2013-02-22 20:53:00
3:53 PM,79.0,57.9,48,29.79,10.0,NNE,10.4,19.6,N/A,,Partly Cloudy,30,2013-02-22 21:53:00
4:53 PM,75.9,55.9,50,29.79,10.0,NE,11.5,20.7,N/A,,Clear,40,2013-02-22 22:53:00
5:53 PM,73.9,55.0,52,29.81,10.0,NNE,11.5,-,N/A,,Clear,30,2013-02-22 23:53:00
6:11 PM,73.4,55.4,53,29.82,10.0,NNE,11.5,-,N/A,,Mostly Cloudy,30,2013-02-23 00:11:00
6:53 PM,71.1,55.9,59,29.83,10.0,NNE,11.5,-,N/A,,Overcast,30,2013-02-23 00:53:00
7:32 PM,69.8,55.4,60,29.84,10.0,NE,12.7,-,N/A,,Scattered Clouds,40,2013-02-23 01:32:00
7:40 PM,69.8,55.4,60,29.85,10.0,ENE,10.4,-,N/A,,Mostly Cloudy,60,2013-02-23 01:40:00
7:53 PM,69.1,55.0,61,29.85,10.0,NE,10.4,-,N/A,,Overcast,40,2013-02-23 01:53:00
8:53 PM,69.1,55.9,63,29.87,10.0,NE,9.2,-,N/A,,Overcast,40,2013-02-23 02:53:00
9:53 PM,68.0,55.9,65,29.89,10.0,NE,9.2,-,N/A,,Overcast,50,2013-02-23 03:53:00
10:53 PM,66.9,57.0,70,29.89,10.0,NNE,11.5,-,N/A,,Overcast,20,2013-02-23 04:53:00
11:53 PM,66.0,57.0,73,29.90,10.0,North,13.8,-,N/A,,Overcast,10,2013-02-23 05:53:00